Regional Weather Roundup
Issued by NWS

Home | Current Version | Previous Version | Graphics & Text | Print | Product List | Glossary On
Versions: 1 2 3 4 5 6 7 8 9 10 11 12 13 14 15 16 17 18 19 20 21 22 23 24 25 26 27 28 29 30 31 32 33 34 35 36 37 38 39 40 41 42 43 44 45 46 47 48 49 50
000
ASUS43 KLOT 040103
RWRIL

ILLINOIS REGIONAL WEATHER ROUNDUP
NATIONAL WEATHER SERVICE CHICAGO/ROMEOVILLE IL
800 PM CDT TUE MAY 03 2016

NOTE: "FAIR" INDICATES FEW OR NO CLOUDS BELOW 12,000 FEET WITH NO
SIGNIFICANT WEATHER AND/OR OBSTRUCTIONS TO VISIBILITY.

* THESE STATIONS ARE NOT UNDER NWS QUALITY CONTROL. THEY ALSO MAY NOT
  REPORT WEATHER SUCH AS PRECIPITATION OR FOG.

ILZ001-002-007-009-015-016-024-040200-
NORTHWEST ILLINOIS

CITY           SKY/WX    TMP DP  RH WIND       PRES   REMARKS
MOLINE         CLOUDY    64  39  39 SW12      29.79F
STERLING*      PTCLDY    63  43  48 SW8       29.78F
$$

ILZ003-004-008-010-011-017-018-040200-
NORTH CENTRAL ILLINOIS

CITY           SKY/WX    TMP DP  RH WIND       PRES   REMARKS
ROCKFORD       CLOUDY    62  41  46 SW9       29.77F
FREEPORT*      CLOUDY    60  42  51 SW9       29.77F
ROCHELLE*      CLOUDY    58  46  63 SW8       29.79S
DE KALB*       CLOUDY    61  42  50 SW10      29.78F
$$

ILZ005-006-012>014-019>023-040200-
NORTHEAST ILLINOIS

CITY           SKY/WX    TMP DP  RH WIND       PRES   REMARKS
CHICAGO-OHARE  CLOUDY    62  39  42 SW13      29.76F
CHICAGO-MIDWAY CLOUDY    64  37  36 W12       29.77F
AURORA         CLOUDY    61  42  49 SW9       29.78F
LANSING*       CLOUDY    61  39  44 W8        29.79F
WAUKEGAN       CLOUDY    62  40  44 SW7       29.73F
DUPAGE AIRPORT CLOUDY    61  39  44 SW12      29.77F
WHEELING       MOCLDY    63  39  41 SW9       29.77S
NORTHERLY ISL    N/A     64  34  32 SW10        N/A
NORTHERLY ISL    N/A     64  34  32 SW10        N/A
$$

LMZ740>746-040200-
SOUTHERN LAKE MICHIGAN

STATION/POSITION SKY/WX   TEMP    WIND        PRES    VSBY  WAVE
                          AIR SEA DIR/SP/G                  HT/PER
                          (F)     (DEG/KT/KT) (MB)    (MI)  (FT/S)
SOUTHERN BUOY              47 41  170/ 14/ 14 1007.1          1/ 3
HARRISON CRIB              65     260/ 20/ 23   N/A
BURNHAM HARBOR             64     230/  5/ 14   N/A
CALUMET HARBOR                                1007.9F
BURNS HARBOR               61     240/  8/ 11 1009.1F
MICHIGAN CITY              62     200/ 10/ 11   N/A
ST. JOSEPH                 55 50                N/A           0
$$

ILZ025>027-034>036-040-047-049-050-058-095>099-040200-
WEST-CENTRAL ILLINOIS

CITY           SKY/WX    TMP DP  RH WIND       PRES   REMARKS
QUINCY         MOCLDY    59  44  57 SW6       29.88F
MACOMB*        MOCLDY    60  44  54 SW6       29.88S
PITTSFIELD*    CLEAR     62  42  47 SW3       29.90F
$$

ILZ028>032-037-038-041>044-048-051>054-059>061-040200-
CENTRAL ILLINOIS

CITY           SKY/WX    TMP DP  RH WIND       PRES   REMARKS
BLOOMINGTON    PTCLDY    61  40  45 W8        29.86F
DECATUR        CLEAR     59  43  55 SW7       29.88S
PEORIA         CLOUDY    62  37  39 SW7       29.85S
SPRINGFIELD    MOCLDY    60  44  55 SW6       29.88S
TAYLORVILLE    NOT AVBL
$$

ILZ033-039-045-046-055>057-062-063-040200-
EAST-CENTRAL ILLINOIS

CITY           SKY/WX    TMP DP  RH WIND       PRES   REMARKS
CHAMPAIGN      PTCLDY    58  44  60 SW9       29.86S
MATTOON        CLOUDY    59  43  55 SW6       29.88S
$$

ILZ079-100>102-040200-
SOUTHWEST ILLINOIS

CITY           SKY/WX    TMP DP  RH WIND       PRES   REMARKS
ALTON          CLEAR     55  43  62 SW6       29.93F
CAHOKIA*       CLEAR     60  43  53 W3        29.93F
SPARTA*        CLOUDY    58  46  64 CALM      29.95S
$$

ILZ064>066-069>071-074>076-080>082-084>086-088>090-092>094-040200-
SOUTH-CENTRAL ILLINOIS

CITY           SKY/WX    TMP DP  RH WIND       PRES   REMARKS
CARBONDALE     CLOUDY    57  44  62 W3        29.94S
MT. VERNON     CLOUDY    57  45  62 CALM      29.94S
SALEM*         PTCLDY    57  47  67 W5        29.93S
$$

ILZ067-068-072-073-078-083-087-091-040200-
SOUTHEAST ILLINOIS

CITY           SKY/WX    TMP DP  RH WIND       PRES   REMARKS
LAWRENCEVILLE  CLOUDY    60  44  55 W6        29.90R
FLORA*         CLOUDY    60  45  57 W9        29.92S
HARRISBURG*    CLEAR     57  45  63 NW3       29.94R
ROBINSON*      CLOUDY    58  45  60 W7        29.90R
$$

ABBREVIATIONS USED IN REMARKS
   TC - TEMPERATURE IN CELSIUS
  WCI - WIND CHILL INDEX
   HX - HEAT INDEX
  VSB - VISIBILITY
$$





USA.gov is the U.S. government's official web portal to all federal, state and local government web resources and services.